Regional Weather Roundup
Issued by NWS

Home | Current Version | Previous Version | Text Only | Print | Product List | Glossary Off
Versions: 1 2 3 4 5 6 7 8 9 10 11 12 13 14 15 16 17 18 19 20 21 22 23 24 25 26 27 28 29 30 31 32 33 34 35 36 37 38 39 40 41 42 43 44 45 46 47 48 49 50

000
ASUS45 KTFX 280619
RWRMT
MONTANA HOURLY WEATHER ROUNDUP
NATIONAL WEATHER SERVICE GREAT FALLS MT
1119 PM MST TUE JAN 27 2015

NOTE: "FAIR" INDICATES FEW OR NO CLOUDS BELOW 12000 FEET WITH NO
SIGNIFICANT WEATHER AND/OR OBSTRUCTIONS TO VISIBILITY.

* THESE STATIONS ARE NOT UNDER NWS QUALITY CONTROL. THEY DO NOT
   REPORT WEATHER SUCH AS PRECIPITATION OR FOG.

MTZ001>007-043-280700-
WEST OF THE DIVIDE
CITY           SKY/WX    TMP DP  RH WIND       PRES   REMARKS
KALISPELL      FOG       18  18 100 N6        30.00R WCI  10
MISSOULA       FOG       30  28  92 E3        30.07R
BUTTE          CLOUDY    30  28  92 CALM      30.03R
MULLAN PASS    CLEAR     32  25  75 SW7       30.04S WCI  25
* ANACONDA     CLOUDY    36  30  79 N/A        N/A
* ESSEX        N/A       30  26  85 SE1G7      N/A
* EUREKA APT   PTCLDY    37  28  70 CALM      29.99R
* HAMILTON APT CLOUDY    37  32  82 CALM      30.06R
* LIBBY APT    CLEAR     27  27 100 NW3       30.07R VSB 1/2
* LINCOLN      N/A       33  27  79 W2         N/A
* LOOKOUT PASS N/A       40  27  60 S8G13      N/A   WCI  35
* POLSON       N/A       39  29  67 SE2        N/A
* RONAN APT    MOCLDY    32  32 100 N/A        N/A
* SEELEY LAKE  N/A       25  23  92 NE2        N/A
* THOMP F APT  CLEAR     33  32  96 N/A        N/A
$$

MTZ008-052>055-280700-
SOUTHWEST MONTANA
CITY           SKY/WX    TMP DP  RH WIND       PRES   REMARKS
BOZEMAN        CLOUDY    34  30  85 SW5       30.00R WCI  29
DILLON         CLOUDY    41  30  65 SW12      30.02R
* W YELLOWSTON CLOUDY    32  31  96 N/A        N/A
* THREE FORKS  CLOUDY    48  45  89 SW9        N/A
* BOULDER HILL N/A       41  23  49 S3         N/A
* MONIDA PASS  N/A       31  31 100 SE10       N/A   WCI  22
* RAYNOLDS PAS N/A       32  16  52 SE9        N/A   WCI  24
* WHITEHALL    N/A       44  28  53 NW6G15     N/A
* WISE RIVER   N/A       31  26  82 NW2        N/A
$$

MTZ009>010-012-014-046-048-049-054-280700-
EAST SLOPES AND CENTRAL MONTANA
CITY           SKY/WX    TMP DP  RH WIND       PRES   REMARKS
CUT BANK       CLOUDY    45  25  45 W22       29.86R
GREAT FALLS    CLOUDY    48  28  46 W13       29.88S
HELENA         CLOUDY    36  30  79 CALM      29.98R
MALMSTROM AFB  CLOUDY    48  28  46 SW7       29.89S
* CONRAD       CLOUDY    48  27  44 SW17G22    N/A
* DEARBORN     N/A       53  28  38 S9         N/A
* EAST GLACIER N/A       40  19  43 NW3        N/A
* MONARCH      N/A       44  18  35 S9         N/A
* PENDROY      N/A       46  22  39 NW12       N/A
* ROGERS PASS  N/A       43  25  49 SE6G19     N/A
* SWEET GRASS  N/A       45  22  40 SW19G26    N/A
* WHITE SULPH  N/A       43  30  60 S8G16      N/A
$$

MTZ011-013-016-021-035-040-045-047-050-051-280700-
NORTH CENTRAL MONTANA
CITY           SKY/WX    TMP DP  RH WIND       PRES   REMARKS
HAVRE          CLOUDY    43  30  60 SW12      29.81R
LEWISTOWN      MOCLDY    43  28  56 W13       29.88R
* N BAR RANCH  CLOUDY    48  23  37 NW10      29.86S
* CHINOOK      CLOUDY    41  30  65 NW3       29.79R
* CHESTER      N/A       44  28  53 W16G26     N/A
* DENTON       N/A       45  26  47 SW8        N/A
* GEYSER       N/A       51  20  29 SW16       N/A
* JUDITH GAP   N/A       45  23  42 SW4        N/A
* LOMA         N/A       47  31  54 W13        N/A
$$

MTZ017>020-022>027-061-062-280700-
NORTHEAST MONTANA
CITY           SKY/WX    TMP DP  RH WIND       PRES   REMARKS
GLASGOW        CLOUDY    37  34  89 W3        29.76S
GLENDIVE       PTCLDY    41  32  70 W5        29.78R
JORDAN         PTCLDY    34  30  85 W7        29.78F WCI  28
SIDNEY         CLOUDY    34  30  85 CALM      29.78S
WOLF POINT     MOCLDY    34  30  85 CALM      29.77S
* BEAVER HILL  N/A       45  32  60 S11        N/A
* CIRCLE       N/A       36  31  82 N/A        N/A
* LINDSAY DVD  N/A       48  29  48 W6         N/A
* NAVAJO       N/A       36  30  79 E2         N/A
* PLENTYWOOD A CLOUDY    34  30  85 CALM      29.76R
* POPLAR APT   CLOUDY    34  30  85 N/A       29.76F
* SACO         N/A       32  32 100 S1         N/A
$$

MTZ028>042-056>058-280700-
SOUTHCENTRAL AND SOUTHEAST MONTANA
CITY           SKY/WX    TMP DP  RH WIND       PRES   REMARKS
BAKER          CLEAR     32  28  85 CALM      29.79S
BILLINGS       MOCLDY    46  28  50 SW10      29.87R
LIVINGSTON     CLOUDY    52  30  43 SW29G38   29.95R
MILES CITY     CLEAR     36  30  79 NW3       29.80R
* BIG TIMBER A CLOUDY    50  30  46 SW20G25   29.93R
* FORSYTH APT  CLEAR     45  30  56 SW5       29.81S
* LAUREL APT   CLOUDY    43  27  53 N/A        N/A
* ROUNDUP APT  MOCLDY    46  28  50 S8         N/A
* ALZADA       N/A       41  30  65 W4         N/A
* HYSHAM       N/A       47  25  42 W6         N/A
* REED POINT   N/A       51  28  41 SW6        N/A
$$

REGIONAL REPORTS...DAKOTAS
CITY           SKY/WX    TMP DP  RH WIND       PRES   REMARKS
WILLISTON      CLOUDY    32  28  85 CALM      29.76F
DICKINSON      PTCLDY    34  28  79 W3        29.75F
BEACH          CLEAR     32  32 100 SW6       29.78S WCI  26
CROSBY         CLEAR     28  28 100 CALM      29.77S
TIOGA          CLEAR     28  28 100 CALM      29.79S
WATFORD CITY   CLEAR     34  32  92 CALM      29.74F
BISMARCK       MOCLDY    34  30  85 NE5       29.79S WCI  29
GRAND FORKS    FOG       34  30  85 S14       29.90R WCI  24
FARGO          CLOUDY    36  30  79 S18G25    29.91S WCI  26
BUFFALO SD     PTCLDY    43  30  60 W8        29.73S
RAPID CITY     PTCLDY    50  27  41 NW14      29.80S
$$

REGIONAL REPORTS...WYOMING/IDAHO/WASHINGTON
CITY           SKY/WX    TMP DP  RH WIND       PRES   REMARKS
GILLETTE       MOCLDY    45  30  56 W13       29.85S
SHERIDAN       CLOUDY    39  28  65 VRB3      29.87R
CODY           MOCLDY    52  28  40 SW24G33   29.93S
YELLOWSTONE LA CLOUDY    30  28  92 CALM      30.14S
SALMON         CLOUDY   N/A N/A N/A CALM      30.14R
MULLAN PASS    CLEAR     32  25  75 SW7       30.04S WCI  25
SAND POINT     FOG      N/A N/A N/A CALM      30.09R VSB M1/4
SPOKANE        FOG       34  34 100 SW8       30.11R VSB M1/4 WCI  27
$$

REGIONAL REPORTS...ALBERTA
CITY           SKY/WX    TMP DP  RH WIND       PRES   REMARKS
CALGARY        N/A       34  27  76 N9        29.85R WCI  27
LETHBRIDGE     CLEAR     43  25  49 SW21      29.81R
MEDICINE HAT   PTCLDY    39  32  76 NW3       29.77R
EDMONTON       LGT SNOW  32  30  92 NW8       29.93R WCI  25
WATERTON GATE  N/A       36  21  54 SW2        N/A
CARDSTON       N/A       39  23  53 SW9        N/A   WCI  33
MILK RIVER     N/A       37  27  67 NW15       N/A   WCI  28
$$

REGIONAL REPORTS...SASKATCHEWAN
CITY           SKY/WX    TMP DP  RH WIND       PRES   REMARKS
SWIFT CURRENT  CLOUDY    34  32  92 SW7       29.70S WCI  28
REGINA         PTCLDY    27  27 100 E6        29.79S WCI  20
VAL MARIE      N/A       32  30  92 S6         N/A   WCI  26
ASSINIBOIA     N/A       30  28  92 E2         N/A
CORONACH       N/A       30  28  92 CALM       N/A

$$



USA.gov is the U.S. government's official web portal to all federal, state and local government web resources and services.